Weather History for NW Arkansas Airport, AR

Change the Weather History Date:

Wednesday, February 13, 2013

  Actual Average Record
Temperature  
Mean Temperature 40 °F -  
Max Temperature 48 °F - - ()
Min Temperature 32 °F - - ()
Degree Days  
Heating Degree Days 25    
Moisture  
Dew Point 33 °F    
Average Humidity 88    
Maximum Humidity 100    
Minimum Humidity 50    
Precipitation  
Precipitation 0.01 in - - ()
Sea Level Pressure  
Sea Level Pressure 29.98 in    
Wind  
Wind Speed 7 mph (West)    
Max Wind Speed 14 mph    
Max Gust Speed 21 mph    
Visibility 6 miles    
Events Fog , Snow    
T = Trace of Precipitation, MM = Missing Value Source: NWS Daily Summary

Daily Weather History Graph

Daily Weather History Graph

Search for Another Location

Airport:

Trip Planner

Search our weather history database for the weather conditions in past years. The results will help you decide how hot, cold, wet, or windy it might be!

Date:

Astronomy

Feb. 13, 2013 Rise Set
Actual Time 7:06 AM CST 5:56 PM CST
Civil Twilight 6:40 AM CST 6:22 PM CST
Nautical Twilight 6:10 AM CST 6:53 PM CST
Astronomical Twilight 5:40 AM CST 7:23 PM CST
Moon 8:44 AM CST (2/13) 9:50 PM CST (2/13)
Length of Visible Light 11h 42m
Length of Day
10h 49m
Waxing Crescent, 14% of the Moon is Illuminated
Feb 13
Waxing Crescent
Feb 17
First Quarter
Feb 25
Full
Mar 4
Last Quarter
Mar 11
New

Hourly Weather History & Observations

Time (CST) Temp. Windchill Dew Point Humidity Pressure Visibility Wind Dir Wind Speed Gust Speed Precip Events Conditions
12:01 AM 32.0 °F 26.4 °F 32.0 °F 100% 29.95 in 3.0 mi North 5.8 mph - 0.00 in Snow Light Snow
12:53 AM 32.0 °F 26.4 °F 32.0 °F 100% 29.96 in 6.0 mi North 5.8 mph - 0.01 in Snow Light Snow
1:53 AM 33.1 °F 26.1 °F 33.1 °F 100% 29.97 in 10.0 mi NNW 8.1 mph - 0.00 in   Overcast
2:53 AM 32.0 °F 24.8 °F 32.0 °F 100% 29.96 in 7.0 mi NNW 8.1 mph - 0.00 in Snow Light Snow
3:16 AM 32.0 °F 24.2 °F 32.0 °F 100% 29.95 in 5.0 mi NNW 9.2 mph - 0.00 in Snow Light Snow
3:53 AM 32.0 °F 24.8 °F 32.0 °F 100% 29.96 in 6.0 mi NNW 8.1 mph - 0.00 in   Overcast
4:37 AM 32.0 °F - 32.0 °F 100% 29.95 in 5.0 mi Calm Calm - N/A   Overcast
4:53 AM 33.1 °F - 33.1 °F 100% 29.96 in 6.0 mi Calm Calm - N/A   Overcast
5:13 AM 33.8 °F 27.0 °F 33.8 °F 100% 29.96 in 6.0 mi WNW 8.1 mph - N/A   Overcast
5:27 AM 32.0 °F 25.6 °F 32.0 °F 100% 29.96 in 5.0 mi NW 6.9 mph - N/A   Overcast
5:53 AM 32.0 °F 27.5 °F 32.0 °F 100% 29.98 in 4.0 mi West 4.6 mph - N/A   Overcast
6:19 AM 32.0 °F 26.4 °F 32.0 °F 100% 29.97 in 2.0 mi West 5.8 mph - N/A   Overcast
6:29 AM 32.0 °F 26.4 °F 32.0 °F 100% 29.97 in 1.2 mi WNW 5.8 mph - N/A   Overcast
6:42 AM 32.0 °F 24.8 °F 32.0 °F 100% 29.98 in 0.8 mi West 8.1 mph - N/A   Mist
6:53 AM 32.0 °F 24.8 °F 32.0 °F 100% 30.01 in 0.5 mi West 8.1 mph - N/A Fog Fog
7:15 AM 32.0 °F 26.4 °F 32.0 °F 100% 29.99 in 0.2 mi West 5.8 mph - N/A Fog Fog
7:23 AM 32.0 °F 26.4 °F 32.0 °F 100% 30.00 in 0.2 mi West 5.8 mph - N/A Fog Fog
7:42 AM 32.0 °F 26.4 °F 32.0 °F 100% 30.00 in 1.0 mi West 5.8 mph - N/A   Mist
7:53 AM 33.1 °F 26.9 °F 33.1 °F 100% 30.03 in 0.8 mi WSW 6.9 mph - N/A   Overcast
8:03 AM 33.8 °F 27.7 °F 33.8 °F 100% 30.01 in 1.0 mi West 6.9 mph - N/A   Overcast
8:29 AM 33.8 °F 27.7 °F 33.8 °F 100% 30.01 in 2.5 mi WSW 6.9 mph - N/A   Overcast
8:36 AM 33.8 °F 26.4 °F 33.8 °F 100% 30.01 in 3.0 mi WSW 9.2 mph - N/A   Overcast
8:53 AM 34.0 °F 26.6 °F 34.0 °F 100% 30.03 in 7.0 mi WSW 9.2 mph - N/A   Overcast
9:39 AM 35.6 °F 28.0 °F 35.6 °F 100% 30.00 in 6.0 mi WSW 10.4 mph - N/A   Overcast
9:53 AM 35.1 °F 26.4 °F 35.1 °F 100% 30.02 in 8.0 mi WSW 12.7 mph - N/A   Mostly Cloudy
10:24 AM 37.4 °F 29.8 °F 35.6 °F 93% 30.00 in 10.0 mi West 11.5 mph - N/A   Mostly Cloudy
10:53 AM 39.9 °F 32.5 °F 36.0 °F 86% 30.02 in 10.0 mi WSW 12.7 mph 18.4 mph N/A   Mostly Cloudy
11:15 AM 39.2 °F 31.6 °F 35.6 °F 87% 30.00 in 10.0 mi WSW 12.7 mph - N/A   Mostly Cloudy
11:53 AM 42.1 °F 35.7 °F 36.0 °F 79% 30.01 in 10.0 mi WSW 11.5 mph - N/A   Mostly Cloudy
12:18 PM 42.8 °F 35.8 °F 35.6 °F 76% 29.98 in 10.0 mi WSW 13.8 mph - N/A   Partly Cloudy
12:53 PM 45.0 °F 39.3 °F 36.0 °F 71% 29.99 in 10.0 mi WSW 11.5 mph - N/A   Partly Cloudy
1:53 PM 48.0 °F - 32.0 °F 54% 29.96 in 10.0 mi West 13.8 mph 20.7 mph N/A   Clear
2:53 PM 48.9 °F - 30.9 °F 50% 29.95 in 10.0 mi West 12.7 mph 18.4 mph N/A   Clear
3:53 PM 48.9 °F - 30.9 °F 50% 29.94 in 10.0 mi West 12.7 mph - N/A   Clear
4:53 PM 48.0 °F - 30.9 °F 52% 29.94 in 10.0 mi WSW 6.9 mph - N/A   Clear
5:53 PM 45.0 °F 41.8 °F 32.0 °F 60% 29.95 in 10.0 mi SW 5.8 mph - N/A   Clear
6:53 PM 42.1 °F 38.4 °F 32.0 °F 67% 29.95 in 10.0 mi SW 5.8 mph - N/A   Clear
7:53 PM 41.0 °F 36.4 °F 32.0 °F 70% 29.96 in 10.0 mi SW 6.9 mph - N/A   Clear
8:53 PM 39.9 °F 35.8 °F 30.9 °F 70% 29.96 in 10.0 mi SW 5.8 mph - N/A   Clear
9:53 PM 39.0 °F 33.4 °F 30.9 °F 73% 29.96 in 10.0 mi SSW 8.1 mph - N/A   Clear
10:53 PM 37.9 °F 32.7 °F 30.9 °F 76% 29.97 in 10.0 mi SW 6.9 mph - N/A   Clear
11:53 PM 37.9 °F 32.7 °F 30.9 °F 76% 29.96 in 10.0 mi SW 6.9 mph - N/A   Clear